Regional Weather Roundup
Issued by NWS

Home | Current Version | Previous Version | Graphics & Text | Print | Product List | Glossary On
Versions: 1 2 3 4 5 6 7 8 9 10 11 12 13 14 15 16 17 18 19 20 21 22 23 24 25 26 27 28 29 30 31 32 33 34 35 36 37 38 39 40 41 42 43 44 45 46 47 48 49 50
000
ASUS43 KIND 260509
RWRIN

WEATHER ROUNDUP FOR INDIANA
NATIONAL WEATHER SERVICE INDIANAPOLIS IN
1200 AM EST SUN FEB 26 2017

NOTE: "FAIR" INDICATES FEW OR NO CLOUDS BELOW 12,000 FEET WITH NO
SIGNIFICANT WEATHER AND/OR OBSTRUCTIONS TO VISIBILITY.

* - STATION DOES NOT REPORT WEATHER SUCH AS PRECIPITATION OR FOG.

+ - STATION NOT QUALITY CONTROLLED BY THE NATIONAL WEATHER SERVICE.
    USE DATA WITH CAUTION...ESPECIALLY DEWPOINT AND RELATIVE
    HUMIDITY OBSERVATIONS.

INZ001>003-010>013-019-020-260600-
NORTHWEST INDIANA

CITY           SKY/WX    TMP DP  RH WIND       PRES   REMARKS
GARY /AIRPORT/ CLEAR     26  13  59 W7        30.06S WCI  18
KNOX *+        CLOUDY    27  -2  28 W10       30.04S WCI  17
LA PORTE +     CLOUDY    26  15  63 W7        30.04R WCI  18
MICHIGAN CITY+ CLOUDY    28  16  59 NW9       30.05R WCI  20
MONTICELLO +   CLEAR     25  17  73 W6        30.06R WCI  18
RENSSELAER +     N/A     25  19  80 W5        30.07R WCI  19
VALPARAISO     PTCLDY    23  15  71 W6        30.05R WCI  16

$$

LMZ046-743>745-260600-
SOUTHERN LAKE MICHIGAN

STATION/POSITION TIME  TEMP    WIND        PRES    WAVE
                       AIR SEA DIR/SP/G            HT
                 (UTC) (F)     (DEG/KT/KT) (MB)    (FT)
BURNS HARBOR     0440   28     290/ 14/ 19 1017.6R
MICHIGAN CITY    0440   27     260/ 16/ 17   N/A

$$

INZ004-005-014>016-021>024-260600-
NORTH CENTRAL INDIANA

CITY           SKY/WX    TMP DP  RH WIND       PRES   REMARKS
GOSHEN         CLOUDY    26  16  65 W9        30.01R WCI  17
LOGANSPORT +   PTCLDY    27  19  74 W6        30.06R WCI  20
PERU/GRISSOM   CLOUDY    26  18  71 W12       30.03R WCI  16
ROCHESTER +    CLOUDY    30  16  55 W9G18     30.04R WCI  22
SOUTH BEND     CLOUDY    25  15  66 NW10      30.02R WCI  15

$$

INZ006>009-017-018-025>027-260600-
NORTHEAST INDIANA

CITY           SKY/WX    TMP DP  RH WIND       PRES   REMARKS
ANGOLA *+      CLOUDY    25  19  80 W5        29.98S WCI  19
AUBURN +       CLOUDY    27  16  63 W10G16    30.02R WCI  17
FORT WAYNE     FLURRIES  27  18  69 W12G20    30.02R WCI  17
HUNTINGTON +   CLOUDY    26  15  62 W7        30.03R WCI  18
KENDALLVILLE + CLOUDY    25  18  73 W9        29.99S WCI  15

$$

INZ028-029-035-036-043>045-051>053-260600-
WEST CENTRAL INDIANA

CITY           SKY/WX    TMP DP  RH WIND       PRES   REMARKS
LAFAYETTE      CLEAR     23  18  81 W6        30.08R WCI  16
TERRE HAUTE    CLEAR     27  14  58 W5        30.12R WCI  22

$$

INZ030>032-037>040-046>048-054>057-064-065-260600-
CENTRAL INDIANA

CITY           SKY/WX    TMP DP  RH WIND       PRES   REMARKS
CP ATTERBURY + CLEAR     28  18  64 W7        30.09S WCI  21
FISHERS *+     PTCLDY    25  21  86 W3        30.07R
FRANKFORT +    CLEAR     27  21  78 W8        30.07R WCI  18
GREENWOOD *+   CLEAR     28  17  63 W7        30.08R WCI  21
INDIANAPOLIS   PTCLDY    25  16  68 W9        30.07R WCI  15
-EAGLE CREEK   CLEAR     27  16  63 W7        30.06R WCI  19
KOKOMO +       CLOUDY    25  18  74 W12       30.05R WCI  14
MARION +       CLOUDY    27  18  69 W15       30.05R WCI  15
MT COMFORT *+  PTCLDY    23  18  80 W7        30.06S WCI  15
SHELBYVILLE    CLEAR     28  16  60 W9        30.07R WCI  19
ZIONSVILLE +   CLEAR     25  19  77 W8        30.06R WCI  16

$$

INZ033-034-041-042-049-050-058-059-260600-
EAST CENTRAL INDIANA

CITY           SKY/WX    TMP DP  RH WIND       PRES   REMARKS
MUNCIE         CLOUDY    27  17  66 W10       30.03R WCI  17

$$

INZ060-061-067>069-081>083-085>088-260600-
SOUTHWEST INDIANA

CITY           SKY/WX    TMP DP  RH WIND       PRES   REMARKS
EVANSVILLE     CLEAR     32  16  51 W3        30.15S
HUNTINGBURG *+ CLEAR     27  19  72 W3        30.14R
WASHINGTON +   CLEAR     28  17  64 W7        30.13S WCI  21

$$

INZ062-063-066-070>080-084-089>092-260600-
SOUTH CENTRAL AND SOUTHEAST INDIANA

CITY           SKY/WX    TMP DP  RH WIND       PRES   REMARKS
BEDFORD +      CLEAR     28  16  59 W6        30.10R WCI  22
BLOOMINGTON    CLEAR     28  15  58 NW6       30.09R WCI  22
MADISON *+     CLEAR     28  19  69 SW5       30.10S WCI  23
NORTH VERNON + PTCLDY    30  19  64 W5        30.08S WCI  25
SEYMOUR +      PTCLDY    27  18  69 W7        30.10R WCI  19

$$




USA.gov is the U.S. government's official web portal to all federal, state and local government web resources and services.